Time,TemperatureF,DewpointF,PressureIn,WindDirection,WindDirectionDegrees,WindSpeedMPH,WindSpeedGustMPH,Humidity,HourlyPrecipIn,Conditions,Clouds,dailyrainin,SoftwareType,DateUTC
2013-06-03 00:01:00,74.9,72.4,29.93,SSE,167,6.0,27.0,92,0.00,,---,0.00,VWS V12.08,2013-06-03 04:01:00,
2013-06-03 00:02:00,74.9,72.4,29.93,SSE,167,4.0,27.0,92,0.00,,---,0.00,VWS V12.08,2013-06-03 04:02:00,
2013-06-03 00:07:00,74.7,72.2,29.93,SSE,167,0.0,27.0,92,0.00,,---,0.00,VWS V12.08,2013-06-03 04:07:00,
2013-06-03 00:12:00,74.6,72.1,29.92,SSE,167,0.0,27.0,92,0.00,,---,0.00,VWS V12.08,2013-06-03 04:12:00,
2013-06-03 00:17:00,74.5,72.3,29.92,SSE,167,0.0,27.0,93,0.00,,---,0.00,VWS V12.08,2013-06-03 04:17:00,
2013-06-03 00:22:00,74.4,72.2,29.92,SSE,167,0.0,27.0,93,0.00,,---,0.00,VWS V12.08,2013-06-03 04:22:00,
2013-06-03 00:27:00,74.4,72.2,29.92,SSE,167,0.0,27.0,93,0.00,,---,0.00,VWS V12.08,2013-06-03 04:27:00,
2013-06-03 00:32:00,74.3,72.2,29.91,SSE,167,0.0,27.0,93,0.00,,---,0.00,VWS V12.08,2013-06-03 04:32:00,
2013-06-03 00:37:00,74.2,72.1,29.91,SSE,167,0.0,27.0,93,0.00,,---,0.00,VWS V12.08,2013-06-03 04:37:00,
2013-06-03 00:42:00,74.1,71.9,29.91,SSE,167,0.0,27.0,93,0.00,,---,0.00,VWS V12.08,2013-06-03 04:42:00,
2013-06-03 00:47:00,74.0,71.8,29.91,SSE,167,0.0,27.0,93,0.00,,---,0.00,VWS V12.08,2013-06-03 04:47:00,
2013-06-03 00:52:00,73.8,71.7,29.91,SSE,167,0.0,27.0,93,0.00,,---,0.00,VWS V12.08,2013-06-03 04:52:00,
2013-06-03 00:57:00,73.7,71.6,29.91,SSE,167,0.0,27.0,93,0.00,,---,0.00,VWS V12.08,2013-06-03 04:57:00,
2013-06-03 01:02:00,73.5,71.4,29.91,SSE,167,0.0,27.0,93,0.00,,---,0.00,VWS V12.08,2013-06-03 05:02:00,
2013-06-03 01:07:00,73.4,71.3,29.92,SSE,167,0.0,27.0,93,0.00,,---,0.00,VWS V12.08,2013-06-03 05:07:00,
2013-06-03 01:12:00,73.3,71.5,29.91,SSE,167,0.0,27.0,94,0.00,,---,0.00,VWS V12.08,2013-06-03 05:12:00,
2013-06-03 01:17:00,73.3,71.5,29.92,SSE,167,0.0,27.0,94,0.00,,---,0.00,VWS V12.08,2013-06-03 05:17:00,
2013-06-03 01:22:00,73.2,71.4,29.92,SSE,167,0.0,27.0,94,0.00,,---,0.00,VWS V12.08,2013-06-03 05:22:00,
2013-06-03 01:27:00,73.1,71.3,29.92,SSE,167,0.0,27.0,94,0.00,,---,0.00,VWS V12.08,2013-06-03 05:27:00,
2013-06-03 01:33:00,73.1,71.3,29.92,SSE,167,0.0,27.0,94,0.00,,---,0.00,VWS V12.08,2013-06-03 05:33:00,
2013-06-03 01:38:00,73.0,71.2,29.92,SSE,167,0.0,27.0,94,0.00,,---,0.00,VWS V12.08,2013-06-03 05:38:00,
2013-06-03 01:43:00,72.8,71.0,29.92,SSE,167,0.0,27.0,94,0.00,,---,0.00,VWS V12.08,2013-06-03 05:43:00,
2013-06-03 01:48:00,72.7,70.9,29.92,SSE,167,0.0,27.0,94,0.00,,---,0.00,VWS V12.08,2013-06-03 05:48:00,
2013-06-03 01:53:00,72.6,70.8,29.92,SSE,167,0.0,27.0,94,0.00,,---,0.00,VWS V12.08,2013-06-03 05:53:00,
2013-06-03 01:58:00,72.5,70.7,29.92,SSE,167,0.0,27.0,94,0.00,,---,0.00,VWS V12.08,2013-06-03 05:58:00,
2013-06-03 02:03:00,72.5,71.0,29.92,SSE,167,0.0,27.0,95,0.00,,---,0.00,VWS V12.08,2013-06-03 06:03:00,
2013-06-03 02:08:00,72.5,70.7,29.91,SSE,167,0.0,27.0,94,0.00,,---,0.00,VWS V12.08,2013-06-03 06:08:00,
2013-06-03 02:13:00,72.4,70.9,29.91,SSE,167,0.0,27.0,95,0.00,,---,0.00,VWS V12.08,2013-06-03 06:13:00,
2013-06-03 02:18:00,72.5,71.0,29.92,SSE,167,0.0,27.0,95,0.00,,---,0.00,VWS V12.08,2013-06-03 06:18:00,
2013-06-03 02:23:00,72.5,71.0,29.91,SSE,167,0.0,27.0,95,0.00,,---,0.00,VWS V12.08,2013-06-03 06:23:00,
2013-06-03 02:28:00,72.3,70.8,29.91,SSE,167,0.0,27.0,95,0.00,,---,0.00,VWS V12.08,2013-06-03 06:28:00,
2013-06-03 02:33:00,72.2,70.7,29.91,SSE,167,0.0,27.0,95,0.00,,---,0.00,VWS V12.08,2013-06-03 06:33:00,
2013-06-03 02:38:00,72.2,70.7,29.91,SSE,167,0.0,27.0,95,0.00,,---,0.00,VWS V12.08,2013-06-03 06:38:00,
2013-06-03 02:43:00,72.0,70.5,29.91,SSE,167,0.0,27.0,95,0.00,,---,0.00,VWS V12.08,2013-06-03 06:43:00,
2013-06-03 02:48:00,72.0,70.5,29.90,SSE,167,0.0,27.0,95,0.00,,---,0.00,VWS V12.08,2013-06-03 06:48:00,
2013-06-03 02:53:00,71.9,70.4,29.90,SSE,167,0.0,27.0,95,0.00,,---,0.00,VWS V12.08,2013-06-03 06:53:00,
2013-06-03 02:58:00,71.9,70.4,29.90,SSE,167,0.0,27.0,95,0.00,,---,0.00,VWS V12.08,2013-06-03 06:58:00,
2013-06-03 03:03:00,71.8,70.3,29.90,SSE,167,0.0,27.0,95,0.00,,---,0.00,VWS V12.08,2013-06-03 07:03:00,
2013-06-03 03:08:00,71.7,70.2,29.90,SSE,167,0.0,27.0,95,0.00,,---,0.00,VWS V12.08,2013-06-03 07:08:00,
2013-06-03 03:13:00,71.6,70.1,29.90,SSE,167,0.0,27.0,95,0.00,,---,0.00,VWS V12.08,2013-06-03 07:13:00,
2013-06-03 03:18:00,71.6,70.1,29.89,SSE,167,0.0,27.0,95,0.00,,---,0.00,VWS V12.08,2013-06-03 07:18:00,
2013-06-03 03:23:00,71.5,70.0,29.90,SSE,167,0.0,27.0,95,0.00,,---,0.00,VWS V12.08,2013-06-03 07:23:00,
2013-06-03 03:28:00,71.4,69.9,29.89,SSE,167,0.0,27.0,95,0.00,,---,0.00,VWS V12.08,2013-06-03 07:28:00,
2013-06-03 03:33:00,71.4,69.9,29.89,SSE,167,0.0,27.0,95,0.00,,---,0.00,VWS V12.08,2013-06-03 07:33:00,
2013-06-03 03:38:00,71.3,69.8,29.89,SSE,167,0.0,27.0,95,0.00,,---,0.00,VWS V12.08,2013-06-03 07:38:00,
2013-06-03 03:43:00,71.1,69.6,29.89,SSE,167,0.0,27.0,95,0.00,,---,0.00,VWS V12.08,2013-06-03 07:43:00,
2013-06-03 03:48:00,71.0,69.5,29.89,SSE,167,0.0,27.0,95,0.00,,---,0.00,VWS V12.08,2013-06-03 07:48:00,
2013-06-03 03:53:00,71.0,69.5,29.89,SSE,167,0.0,27.0,95,0.00,,---,0.00,VWS V12.08,2013-06-03 07:53:00,
2013-06-03 03:58:00,70.9,69.4,29.89,SSE,167,0.0,27.0,95,0.00,,---,0.00,VWS V12.08,2013-06-03 07:58:00,
2013-06-03 04:03:00,71.1,69.9,29.89,SSE,167,0.0,27.0,96,0.00,,---,0.00,VWS V12.08,2013-06-03 08:03:00,
2013-06-03 04:08:00,71.2,70.0,29.89,SSE,167,0.0,27.0,96,0.00,,---,0.00,VWS V12.08,2013-06-03 08:08:00,
2013-06-03 04:13:00,71.6,70.4,29.89,SSE,167,1.0,27.0,96,0.00,,---,0.00,VWS V12.08,2013-06-03 08:13:00,
2013-06-03 04:18:00,72.0,70.8,29.89,SSE,167,0.0,27.0,96,0.00,,---,0.00,VWS V12.08,2013-06-03 08:18:00,
2013-06-03 04:23:00,72.1,70.9,29.89,SSE,167,0.0,27.0,96,0.00,,---,0.00,VWS V12.08,2013-06-03 08:23:00,
2013-06-03 04:28:00,72.0,70.5,29.89,SSE,167,0.0,27.0,95,0.00,,---,0.00,VWS V12.08,2013-06-03 08:28:00,
2013-06-03 04:33:00,71.9,70.7,29.89,SSE,167,0.0,27.0,96,0.00,,---,0.00,VWS V12.08,2013-06-03 08:33:00,
2013-06-03 04:38:00,71.8,70.6,29.89,SSE,167,0.0,27.0,96,0.00,,---,0.00,VWS V12.08,2013-06-03 08:38:00,
2013-06-03 04:43:00,71.7,70.5,29.90,SSE,167,0.0,27.0,96,0.00,,---,0.00,VWS V12.08,2013-06-03 08:43:00,
2013-06-03 04:48:00,71.5,70.0,29.89,SSE,167,0.0,27.0,95,0.00,,---,0.00,VWS V12.08,2013-06-03 08:48:00,
2013-06-03 04:53:00,71.3,69.8,29.89,SSE,167,0.0,27.0,95,0.00,,---,0.00,VWS V12.08,2013-06-03 08:53:00,
2013-06-03 04:58:00,71.3,70.1,29.90,SSE,167,0.0,27.0,96,0.00,,---,0.00,VWS V12.08,2013-06-03 08:58:00,
2013-06-03 05:03:00,71.4,70.2,29.90,SSE,167,0.0,27.0,96,0.00,,---,0.00,VWS V12.08,2013-06-03 09:03:00,
2013-06-03 05:08:00,71.5,70.3,29.90,SSE,167,0.0,27.0,96,0.00,,---,0.00,VWS V12.08,2013-06-03 09:08:00,
2013-06-03 05:13:00,71.6,70.4,29.90,SSE,167,0.0,27.0,96,0.00,,---,0.00,VWS V12.08,2013-06-03 09:13:00,
2013-06-03 05:18:00,71.8,70.6,29.90,SSE,167,0.0,27.0,96,0.00,,---,0.00,VWS V12.08,2013-06-03 09:18:00,
2013-06-03 05:23:00,71.9,70.7,29.90,SSE,167,0.0,27.0,96,0.00,,---,0.00,VWS V12.08,2013-06-03 09:23:00,
2013-06-03 05:28:00,71.8,70.6,29.90,SSE,167,0.0,27.0,96,0.00,,---,0.00,VWS V12.08,2013-06-03 09:28:00,
2013-06-03 05:33:00,71.7,70.5,29.91,SSE,167,0.0,27.0,96,0.00,,---,0.00,VWS V12.08,2013-06-03 09:33:00,
2013-06-03 05:38:00,71.5,70.0,29.91,SSE,167,0.0,27.0,95,0.00,,---,0.00,VWS V12.08,2013-06-03 09:38:00,
2013-06-03 05:43:00,71.3,69.8,29.91,SSE,167,0.0,27.0,95,0.00,,---,0.00,VWS V12.08,2013-06-03 09:43:00,
2013-06-03 05:48:00,71.2,70.0,29.91,SSE,167,0.0,27.0,96,0.00,,---,0.00,VWS V12.08,2013-06-03 09:48:00,
2013-06-03 05:53:00,71.3,70.1,29.91,SSE,167,0.0,27.0,96,0.00,,---,0.00,VWS V12.08,2013-06-03 09:53:00,
2013-06-03 05:58:00,71.4,70.2,29.91,SSE,167,0.0,27.0,96,0.00,,---,0.00,VWS V12.08,2013-06-03 09:58:00,
2013-06-03 06:03:00,71.2,70.0,29.91,SSE,167,0.0,27.0,96,0.00,,---,0.00,VWS V12.08,2013-06-03 10:03:00,
2013-06-03 06:08:00,71.0,69.8,29.91,SSE,167,0.0,27.0,96,0.00,,---,0.00,VWS V12.08,2013-06-03 10:08:00,
2013-06-03 06:13:00,70.8,69.6,29.92,SSE,167,0.0,27.0,96,0.00,,---,0.00,VWS V12.08,2013-06-03 10:13:00,
2013-06-03 06:18:00,71.0,69.8,29.92,SSE,167,0.0,27.0,96,0.00,,---,0.00,VWS V12.08,2013-06-03 10:18:00,
2013-06-03 06:23:00,71.2,70.0,29.92,SSE,167,0.0,27.0,96,0.00,,---,0.00,VWS V12.08,2013-06-03 10:23:00,
2013-06-03 06:28:00,71.1,69.9,29.92,SSE,167,0.0,27.0,96,0.00,,---,0.00,VWS V12.08,2013-06-03 10:28:00,
2013-06-03 06:33:00,70.9,69.7,29.92,SSE,167,0.0,27.0,96,0.00,,---,0.00,VWS V12.08,2013-06-03 10:33:00,
2013-06-03 06:38:00,70.8,69.6,29.92,SSE,167,0.0,27.0,96,0.00,,---,0.00,VWS V12.08,2013-06-03 10:38:00,
2013-06-03 06:43:00,70.7,69.5,29.92,SSE,167,0.0,27.0,96,0.00,,---,0.00,VWS V12.08,2013-06-03 10:43:00,
2013-06-03 06:48:00,70.6,69.4,29.92,SSE,167,0.0,27.0,96,0.00,,---,0.00,VWS V12.08,2013-06-03 10:48:00,
2013-06-03 06:53:00,70.6,69.4,29.91,SSE,167,0.0,27.0,96,0.00,,---,0.00,VWS V12.08,2013-06-03 10:53:00,
2013-06-03 06:58:00,70.6,69.4,29.91,SSE,167,0.0,27.0,96,0.00,,---,0.00,VWS V12.08,2013-06-03 10:58:00,
2013-06-03 07:03:00,70.6,69.4,29.91,SSE,167,0.0,27.0,96,0.00,,---,0.00,VWS V12.08,2013-06-03 11:03:00,
2013-06-03 07:08:00,70.7,69.5,29.92,SSE,167,0.0,27.0,96,0.00,,---,0.00,VWS V12.08,2013-06-03 11:08:00,
2013-06-03 07:13:00,70.8,69.6,29.92,SSE,167,0.0,27.0,96,0.00,,---,0.00,VWS V12.08,2013-06-03 11:13:00,
2013-06-03 07:18:00,70.9,69.7,29.92,SSE,167,0.0,27.0,96,0.00,,---,0.00,VWS V12.08,2013-06-03 11:18:00,
2013-06-03 07:23:00,71.3,70.4,29.92,SSE,167,0.0,27.0,97,0.00,,---,0.00,VWS V12.08,2013-06-03 11:23:00,
2013-06-03 07:28:00,72.0,71.1,29.93,SSE,167,0.0,27.0,97,0.00,,---,0.00,VWS V12.08,2013-06-03 11:28:00,
2013-06-03 07:33:00,72.5,71.6,29.92,SSE,167,0.0,27.0,97,0.00,,---,0.00,VWS V12.08,2013-06-03 11:33:00,
2013-06-03 07:38:00,73.0,72.4,29.92,SSE,167,0.0,27.0,98,0.00,,---,0.00,VWS V12.08,2013-06-03 11:38:00,
2013-06-03 07:43:00,73.4,72.5,29.92,SSE,167,0.0,27.0,97,0.00,,---,0.00,VWS V12.08,2013-06-03 11:43:00,
2013-06-03 07:48:00,73.9,73.3,29.92,SSE,167,0.0,27.0,98,0.00,,---,0.00,VWS V12.08,2013-06-03 11:48:00,
2013-06-03 07:53:00,74.4,73.8,29.93,SSE,167,0.0,27.0,98,0.00,,---,0.00,VWS V12.08,2013-06-03 11:53:00,
2013-06-03 07:58:00,74.9,74.0,29.93,SSE,167,0.0,27.0,97,0.00,,---,0.00,VWS V12.08,2013-06-03 11:58:00,
2013-06-03 08:03:00,75.3,74.4,29.93,SSE,167,0.0,27.0,97,0.00,,---,0.00,VWS V12.08,2013-06-03 12:03:00,
2013-06-03 08:08:00,75.8,74.9,29.93,SSE,167,0.0,27.0,97,0.00,,---,0.00,VWS V12.08,2013-06-03 12:08:00,
2013-06-03 08:13:00,76.0,75.1,29.93,SSE,167,0.0,27.0,97,0.00,,---,0.00,VWS V12.08,2013-06-03 12:13:00,
2013-06-03 08:18:00,76.2,75.3,29.93,SSE,167,0.0,27.0,97,0.00,,---,0.00,VWS V12.08,2013-06-03 12:18:00,
2013-06-03 08:23:00,76.6,75.7,29.93,SSE,167,5.0,27.0,97,0.00,,---,0.00,VWS V12.08,2013-06-03 12:23:00,
2013-06-03 08:28:00,77.0,75.8,29.93,SSE,167,0.0,27.0,96,0.00,,---,0.00,VWS V12.08,2013-06-03 12:28:00,
2013-06-03 08:33:00,77.4,75.9,29.93,SSE,167,0.0,27.0,95,0.00,,---,0.00,VWS V12.08,2013-06-03 12:33:00,
2013-06-03 08:38:00,77.8,75.9,29.93,SSE,167,0.0,27.0,94,0.00,,---,0.00,VWS V12.08,2013-06-03 12:38:00,
2013-06-03 08:44:00,78.0,75.8,29.94,SSE,167,4.0,27.0,93,0.00,,---,0.00,VWS V12.08,2013-06-03 12:44:00,
2013-06-03 08:49:00,78.4,76.2,29.94,SSE,167,0.0,27.0,93,0.00,,---,0.00,VWS V12.08,2013-06-03 12:49:00,
2013-06-03 08:54:00,78.6,76.1,29.94,SSE,167,6.0,27.0,92,0.00,,---,0.00,VWS V12.08,2013-06-03 12:54:00,
2013-06-03 08:59:00,78.7,76.2,29.94,SSE,167,0.0,27.0,92,0.00,,---,0.00,VWS V12.08,2013-06-03 12:59:00,
2013-06-03 09:04:00,79.1,76.6,29.94,SW,217,5.0,27.0,92,0.00,,---,0.00,VWS V12.08,2013-06-03 13:04:00,
2013-06-03 09:09:00,79.4,76.6,29.94,SW,217,0.0,27.0,91,0.00,,---,0.00,VWS V12.08,2013-06-03 13:09:00,
2013-06-03 09:14:00,79.8,76.6,29.94,SW,217,0.0,27.0,90,0.00,,---,0.00,VWS V12.08,2013-06-03 13:14:00,
2013-06-03 09:19:00,79.8,75.9,29.94,SW,232,2.0,27.0,88,0.00,,---,0.00,VWS V12.08,2013-06-03 13:19:00,
2013-06-03 09:24:00,80.0,76.1,29.94,SW,232,3.0,27.0,88,0.00,,---,0.00,VWS V12.08,2013-06-03 13:24:00,
2013-06-03 09:29:00,80.5,76.3,29.94,WSW,238,4.0,27.0,87,0.00,,---,0.00,VWS V12.08,2013-06-03 13:29:00,
2013-06-03 09:34:00,80.4,75.8,29.95,SW,229,4.0,27.0,86,0.00,,---,0.00,VWS V12.08,2013-06-03 13:34:00,
2013-06-03 09:39:00,80.1,75.5,29.94,SW,229,4.0,27.0,86,0.00,,---,0.00,VWS V12.08,2013-06-03 13:39:00,
2013-06-03 09:44:00,80.3,76.1,29.95,SW,236,4.0,27.0,87,0.00,,---,0.00,VWS V12.08,2013-06-03 13:44:00,
2013-06-03 09:49:00,80.6,75.7,29.95,SW,225,4.0,27.0,85,0.00,,---,0.00,VWS V12.08,2013-06-03 13:49:00,
2013-06-03 09:54:00,81.0,76.1,29.95,SW,219,3.0,27.0,85,0.00,,---,0.00,VWS V12.08,2013-06-03 13:54:00,
2013-06-03 09:59:00,81.5,75.8,29.94,SSW,205,4.0,27.0,83,0.00,,---,0.00,VWS V12.08,2013-06-03 13:59:00,
2013-06-03 10:04:00,82.1,76.4,29.94,SW,217,7.0,27.0,83,0.00,,---,0.00,VWS V12.08,2013-06-03 14:04:00,
2013-06-03 10:09:00,82.2,76.2,29.94,SW,233,7.0,27.0,82,0.00,,---,0.00,VWS V12.08,2013-06-03 14:09:00,
2013-06-03 10:14:00,82.5,76.4,29.94,SW,223,8.0,27.0,82,0.00,,---,0.00,VWS V12.08,2013-06-03 14:14:00,
2013-06-03 10:19:00,82.1,76.1,29.94,SSW,205,6.0,27.0,82,0.00,,---,0.00,VWS V12.08,2013-06-03 14:19:00,
2013-06-03 10:24:00,81.7,75.7,29.94,SSW,198,3.0,27.0,82,0.00,,---,0.00,VWS V12.08,2013-06-03 14:24:00,
2013-06-03 10:29:00,81.9,76.2,29.94,SSW,211,5.0,27.0,83,0.00,,---,0.00,VWS V12.08,2013-06-03 14:29:00,
2013-06-03 10:34:00,82.6,76.6,29.94,SW,227,5.0,27.0,82,0.00,,---,0.00,VWS V12.08,2013-06-03 14:34:00,
2013-06-03 10:39:00,82.8,76.0,29.94,SW,215,2.0,27.0,80,0.00,,---,0.00,VWS V12.08,2013-06-03 14:39:00,
2013-06-03 10:44:00,83.0,76.2,29.94,SW,227,4.0,27.0,80,0.00,,---,0.00,VWS V12.08,2013-06-03 14:44:00,
2013-06-03 10:49:00,83.7,76.5,29.94,WSW,238,4.0,27.0,79,0.00,,---,0.00,VWS V12.08,2013-06-03 14:49:00,
2013-06-03 10:54:00,84.0,76.4,29.94,SW,236,11.0,27.0,78,0.00,,---,0.00,VWS V12.08,2013-06-03 14:54:00,
2013-06-03 10:59:00,84.0,76.8,29.94,SW,236,8.0,27.0,79,0.00,,---,0.00,VWS V12.08,2013-06-03 14:59:00,
2013-06-03 11:04:00,84.5,76.1,29.94,SSW,209,7.0,27.0,76,0.00,,---,0.00,VWS V12.08,2013-06-03 15:04:00,
2013-06-03 11:09:00,84.9,76.9,29.94,SW,234,4.0,27.0,77,0.00,,---,0.00,VWS V12.08,2013-06-03 15:09:00,
2013-06-03 11:14:00,85.2,76.4,29.94,WSW,244,6.0,27.0,75,0.00,,---,0.00,VWS V12.08,2013-06-03 15:14:00,
2013-06-03 11:19:00,85.4,76.6,29.94,SW,225,0.0,27.0,75,0.00,,---,0.00,VWS V12.08,2013-06-03 15:19:00,
2013-06-03 11:24:00,85.4,76.6,29.94,SW,231,2.0,27.0,75,0.00,,---,0.00,VWS V12.08,2013-06-03 15:24:00,
2013-06-03 11:29:00,85.4,76.6,29.94,SW,232,8.0,27.0,75,0.00,,---,0.00,VWS V12.08,2013-06-03 15:29:00,
2013-06-03 11:34:00,85.5,76.3,29.94,SSW,196,4.0,27.0,74,0.00,,---,0.00,VWS V12.08,2013-06-03 15:34:00,
2013-06-03 11:39:00,85.8,76.2,29.94,WSW,243,5.0,27.0,73,0.00,,---,0.00,VWS V12.08,2013-06-03 15:39:00,
2013-06-03 11:44:00,85.6,75.1,29.94,South,182,6.0,27.0,71,0.00,,---,0.00,VWS V12.08,2013-06-03 15:44:00,
2013-06-03 11:49:00,85.5,75.4,29.94,SW,224,6.0,27.0,72,0.00,,---,0.00,VWS V12.08,2013-06-03 15:49:00,
2013-06-03 11:54:00,86.2,76.1,29.93,SSW,201,5.0,27.0,72,0.00,,---,0.00,VWS V12.08,2013-06-03 15:54:00,
2013-06-03 11:59:00,86.4,75.9,29.93,SSW,209,6.0,27.0,71,0.00,,---,0.00,VWS V12.08,2013-06-03 15:59:00,
2013-06-03 12:04:00,86.1,75.2,29.94,SW,214,4.0,27.0,70,0.00,,---,0.00,VWS V12.08,2013-06-03 16:04:00,
2013-06-03 12:09:00,85.9,75.0,29.94,SW,217,7.0,27.0,70,0.00,,---,0.00,VWS V12.08,2013-06-03 16:09:00,
2013-06-03 12:14:00,86.0,75.5,29.94,SW,231,5.0,27.0,71,0.00,,---,0.00,VWS V12.08,2013-06-03 16:14:00,
2013-06-03 12:19:00,86.6,75.7,29.94,South,182,7.0,27.0,70,0.00,,---,0.00,VWS V12.08,2013-06-03 16:19:00,
2013-06-03 12:24:00,87.1,75.7,29.94,WSW,244,8.0,27.0,69,0.00,,---,0.00,VWS V12.08,2013-06-03 16:24:00,
2013-06-03 12:29:00,87.6,74.4,29.93,SW,215,5.0,27.0,65,0.00,,---,0.00,VWS V12.08,2013-06-03 16:29:00,
2013-06-03 12:34:00,88.0,74.3,29.93,SW,221,8.0,27.0,64,0.00,,---,0.00,VWS V12.08,2013-06-03 16:34:00,
2013-06-03 12:39:00,88.5,74.3,29.93,SSW,198,7.0,27.0,63,0.00,,---,0.00,VWS V12.08,2013-06-03 16:39:00,
2013-06-03 12:44:00,89.2,75.0,29.93,SSW,205,6.0,27.0,63,0.00,,---,0.00,VWS V12.08,2013-06-03 16:44:00,
2013-06-03 12:49:00,89.3,75.1,29.92,South,178,9.0,27.0,63,0.00,,---,0.00,VWS V12.08,2013-06-03 16:49:00,
2013-06-03 12:55:00,89.6,75.3,29.92,South,188,6.0,27.0,63,0.00,,---,0.00,VWS V12.08,2013-06-03 16:55:00,
2013-06-03 13:00:00,89.8,75.1,29.92,SW,217,5.0,27.0,62,0.00,,---,0.00,VWS V12.08,2013-06-03 17:00:00,
2013-06-03 13:05:00,89.8,75.1,29.92,SW,227,0.0,27.0,62,0.00,,---,0.00,VWS V12.08,2013-06-03 17:05:00,
2013-06-03 13:10:00,90.1,74.8,29.92,SW,222,5.0,27.0,61,0.00,,---,0.00,VWS V12.08,2013-06-03 17:10:00,
2013-06-03 13:15:00,90.5,75.2,29.92,SSE,165,9.0,27.0,61,0.00,,---,0.00,VWS V12.08,2013-06-03 17:15:00,
2013-06-03 13:20:00,90.7,73.9,29.91,South,183,4.0,27.0,58,0.00,,---,0.00,VWS V12.08,2013-06-03 17:20:00,
2013-06-03 13:25:00,90.3,74.0,29.91,South,182,5.0,27.0,59,0.00,,---,0.00,VWS V12.08,2013-06-03 17:25:00,
2013-06-03 13:30:00,89.7,73.5,29.91,SSW,194,7.0,27.0,59,0.00,,---,0.00,VWS V12.08,2013-06-03 17:30:00,
2013-06-03 13:35:00,89.6,74.4,29.91,South,188,6.0,27.0,61,0.00,,---,0.00,VWS V12.08,2013-06-03 17:35:00,
2013-06-03 13:40:00,89.8,74.1,29.91,South,178,4.0,27.0,60,0.00,,---,0.00,VWS V12.08,2013-06-03 17:40:00,
2013-06-03 13:45:00,89.9,74.2,29.91,South,173,8.0,27.0,60,0.00,,---,0.00,VWS V12.08,2013-06-03 17:45:00,
2013-06-03 13:50:00,89.8,74.1,29.91,South,174,9.0,27.0,60,0.00,,---,0.00,VWS V12.08,2013-06-03 17:50:00,
2013-06-03 13:55:00,90.2,73.9,29.90,SW,218,5.0,27.0,59,0.00,,---,0.00,VWS V12.08,2013-06-03 17:55:00,
2013-06-03 14:00:00,90.0,73.8,29.90,SSW,202,0.0,27.0,59,0.00,,---,0.00,VWS V12.08,2013-06-03 18:00:00,
2013-06-03 14:05:00,89.9,74.2,29.90,South,180,3.0,27.0,60,0.00,,---,0.00,VWS V12.08,2013-06-03 18:05:00,
2013-06-03 14:10:00,89.7,74.0,29.89,SE,146,8.0,27.0,60,0.00,,---,0.00,VWS V12.08,2013-06-03 18:10:00,
2013-06-03 14:15:00,89.5,73.8,29.89,South,174,7.0,27.0,60,0.00,,---,0.00,VWS V12.08,2013-06-03 18:15:00,
2013-06-03 14:20:00,89.5,73.8,29.89,South,173,8.0,27.0,60,0.00,,---,0.00,VWS V12.08,2013-06-03 18:20:00,
2013-06-03 14:25:00,89.9,74.2,29.89,South,191,5.0,27.0,60,0.00,,---,0.00,VWS V12.08,2013-06-03 18:25:00,
2013-06-03 14:30:00,90.2,74.4,29.89,SW,214,11.0,27.0,60,0.00,,---,0.00,VWS V12.08,2013-06-03 18:30:00,
2013-06-03 14:35:00,90.4,74.1,29.89,SSE,163,1.0,27.0,59,0.00,,---,0.00,VWS V12.08,2013-06-03 18:35:00,
2013-06-03 14:40:00,90.6,74.3,29.89,South,173,5.0,27.0,59,0.00,,---,0.00,VWS V12.08,2013-06-03 18:40:00,
2013-06-03 14:45:00,90.9,74.1,29.88,South,173,0.0,27.0,58,0.00,,---,0.00,VWS V12.08,2013-06-03 18:45:00,
2013-06-03 14:50:00,90.8,73.5,29.88,SSW,211,5.0,27.0,57,0.00,,---,0.00,VWS V12.08,2013-06-03 18:50:00,
2013-06-03 14:55:00,90.9,74.1,29.88,SSW,201,0.0,27.0,58,0.00,,---,0.00,VWS V12.08,2013-06-03 18:55:00,
2013-06-03 15:00:00,91.4,73.5,29.88,South,175,7.0,27.0,56,0.00,,---,0.00,VWS V12.08,2013-06-03 19:00:00,
2013-06-03 15:05:00,91.8,73.9,29.87,South,172,0.0,27.0,56,0.00,,---,0.00,VWS V12.08,2013-06-03 19:05:00,
2013-06-03 15:10:00,91.9,74.0,29.88,SW,215,3.0,27.0,56,0.00,,---,0.00,VWS V12.08,2013-06-03 19:10:00,
2013-06-03 15:15:00,91.7,74.8,29.87,West,262,3.0,27.0,58,0.00,,---,0.00,VWS V12.08,2013-06-03 19:15:00,
2013-06-03 15:20:00,91.0,74.2,29.87,SW,217,8.0,27.0,58,0.00,,---,0.00,VWS V12.08,2013-06-03 19:20:00,
2013-06-03 15:25:00,90.6,73.8,29.88,SSW,205,9.0,27.0,58,0.00,,---,0.00,VWS V12.08,2013-06-03 19:25:00,
2013-06-03 15:30:00,90.2,72.9,29.88,SW,219,7.0,27.0,57,0.00,,---,0.00,VWS V12.08,2013-06-03 19:30:00,
2013-06-03 15:35:00,89.9,73.7,29.88,SSW,205,3.0,27.0,59,0.00,,---,0.00,VWS V12.08,2013-06-03 19:35:00,
2013-06-03 15:40:00,89.6,74.4,29.87,South,183,6.0,27.0,61,0.00,,---,0.00,VWS V12.08,2013-06-03 19:40:00,
2013-06-03 15:45:00,89.7,74.5,29.87,South,180,5.0,27.0,61,0.00,,---,0.00,VWS V12.08,2013-06-03 19:45:00,
2013-06-03 15:50:00,89.5,74.8,29.87,SSW,213,4.0,27.0,62,0.00,,---,0.00,VWS V12.08,2013-06-03 19:50:00,
2013-06-03 15:55:00,89.2,74.5,29.87,South,188,6.0,27.0,62,0.00,,---,0.00,VWS V12.08,2013-06-03 19:55:00,
2013-06-03 16:00:00,89.0,74.8,29.86,SSW,196,4.0,27.0,63,0.00,,---,0.00,VWS V12.08,2013-06-03 20:00:00,
2013-06-03 16:05:00,88.7,74.5,29.87,SSW,211,4.0,27.0,63,0.00,,---,0.00,VWS V12.08,2013-06-03 20:05:00,
2013-06-03 16:10:00,88.7,75.0,29.87,South,186,6.0,27.0,64,0.00,,---,0.00,VWS V12.08,2013-06-03 20:10:00,
2013-06-03 16:15:00,89.0,75.2,29.86,South,188,8.0,27.0,64,0.00,,---,0.00,VWS V12.08,2013-06-03 20:15:00,
2013-06-03 16:20:00,88.9,75.2,29.86,SSW,194,6.0,27.0,64,0.00,,---,0.00,VWS V12.08,2013-06-03 20:20:00,
2013-06-03 16:25:00,88.8,74.6,29.86,South,182,8.0,27.0,63,0.00,,---,0.00,VWS V12.08,2013-06-03 20:25:00,
2013-06-03 16:30:00,88.8,75.1,29.86,SW,229,6.0,27.0,64,0.00,,---,0.00,VWS V12.08,2013-06-03 20:30:00,
2013-06-03 16:35:00,89.0,75.2,29.86,SW,231,2.0,27.0,64,0.00,,---,0.00,VWS V12.08,2013-06-03 20:35:00,
2013-06-03 16:40:00,89.0,75.2,29.85,SW,229,6.0,27.0,64,0.00,,---,0.00,VWS V12.08,2013-06-03 20:40:00,
2013-06-03 16:45:00,89.0,75.2,29.86,SW,219,7.0,27.0,64,0.00,,---,0.00,VWS V12.08,2013-06-03 20:45:00,
2013-06-03 16:51:00,88.5,74.3,29.87,SW,220,8.0,27.0,63,0.00,,---,0.00,VWS V12.08,2013-06-03 20:51:00,
2013-06-03 16:56:00,88.2,75.9,29.87,WSW,242,14.0,27.0,67,0.00,,---,0.00,VWS V12.08,2013-06-03 20:56:00,
2013-06-03 17:01:00,86.8,75.8,29.87,WSW,251,13.0,27.0,70,0.00,,---,0.00,VWS V12.08,2013-06-03 21:01:00,
2013-06-03 17:06:00,85.7,74.8,29.87,West,261,17.0,27.0,70,0.00,,---,0.00,VWS V12.08,2013-06-03 21:06:00,
2013-06-03 17:11:00,85.2,74.3,29.87,SW,232,13.0,27.0,70,0.00,,---,0.00,VWS V12.08,2013-06-03 21:11:00,
2013-06-03 17:16:00,85.1,74.6,29.87,WSW,242,6.0,27.0,71,0.00,,---,0.00,VWS V12.08,2013-06-03 21:16:00,
2013-06-03 17:21:00,85.1,75.1,29.87,SW,229,12.0,27.0,72,0.00,,---,0.00,VWS V12.08,2013-06-03 21:21:00,
2013-06-03 17:26:00,84.9,74.9,29.87,SW,223,10.0,27.0,72,0.00,,---,0.00,VWS V12.08,2013-06-03 21:26:00,
2013-06-03 17:31:00,85.0,75.0,29.87,WSW,239,1.0,27.0,72,0.00,,---,0.00,VWS V12.08,2013-06-03 21:31:00,
2013-06-03 17:36:00,85.0,74.6,29.87,WSW,243,5.0,27.0,71,0.00,,---,0.00,VWS V12.08,2013-06-03 21:36:00,
2013-06-03 17:41:00,85.1,74.6,29.87,SW,232,8.0,27.0,71,0.00,,---,0.00,VWS V12.08,2013-06-03 21:41:00,
2013-06-03 17:46:00,85.0,74.6,29.86,WSW,242,6.0,27.0,71,0.00,,---,0.00,VWS V12.08,2013-06-03 21:46:00,
2013-06-03 17:51:00,84.8,74.8,29.87,SW,234,3.0,27.0,72,0.00,,---,0.00,VWS V12.08,2013-06-03 21:51:00,
2013-06-03 17:56:00,84.6,74.6,29.86,SW,232,6.0,27.0,72,0.00,,---,0.00,VWS V12.08,2013-06-03 21:56:00,
2013-06-03 18:01:00,84.6,74.6,29.86,WSW,249,11.0,27.0,72,0.00,,---,0.00,VWS V12.08,2013-06-03 22:01:00,
2013-06-03 18:06:00,84.5,74.5,29.86,WSW,246,7.0,27.0,72,0.00,,---,0.00,VWS V12.08,2013-06-03 22:06:00,
2013-06-03 18:11:00,84.5,74.9,29.86,WSW,252,4.0,27.0,73,0.00,,---,0.00,VWS V12.08,2013-06-03 22:11:00,
2013-06-03 18:16:00,84.3,75.1,29.87,WSW,239,6.0,27.0,74,0.00,,---,0.00,VWS V12.08,2013-06-03 22:16:00,
2013-06-03 18:21:00,84.2,75.0,29.87,WSW,248,5.0,27.0,74,0.00,,---,0.00,VWS V12.08,2013-06-03 22:21:00,
2013-06-03 18:26:00,84.0,75.2,29.87,WSW,242,6.0,27.0,75,0.00,,---,0.00,VWS V12.08,2013-06-03 22:26:00,
2013-06-03 18:32:00,83.7,75.3,29.88,WSW,253,5.0,27.0,76,0.00,,---,0.00,VWS V12.08,2013-06-03 22:32:00,
2013-06-03 18:37:00,83.3,75.3,29.88,WSW,242,8.0,27.0,77,0.00,,---,0.00,VWS V12.08,2013-06-03 22:37:00,
2013-06-03 18:42:00,83.0,75.4,29.88,WSW,238,10.0,27.0,78,0.00,,---,0.00,VWS V12.08,2013-06-03 22:42:00,
2013-06-03 18:47:00,82.5,74.9,29.88,SW,235,8.0,27.0,78,0.00,,---,0.00,VWS V12.08,2013-06-03 22:47:00,
2013-06-03 18:52:00,82.4,75.2,29.88,SW,234,7.0,27.0,79,0.00,,---,0.00,VWS V12.08,2013-06-03 22:52:00,
2013-06-03 18:57:00,82.1,74.6,29.89,SW,227,8.0,27.0,78,0.00,,---,0.00,VWS V12.08,2013-06-03 22:57:00,
2013-06-03 19:02:00,81.8,74.3,29.89,SW,221,6.0,27.0,78,0.00,,---,0.00,VWS V12.08,2013-06-03 23:02:00,
2013-06-03 19:07:00,81.7,74.2,29.89,SW,236,5.0,27.0,78,0.00,,---,0.00,VWS V12.08,2013-06-03 23:07:00,
2013-06-03 19:12:00,81.7,74.6,29.89,SW,236,3.0,27.0,79,0.00,,---,0.00,VWS V12.08,2013-06-03 23:12:00,
2013-06-03 19:17:00,81.6,74.1,29.89,SW,236,7.0,27.0,78,0.00,,---,0.00,VWS V12.08,2013-06-03 23:17:00,
2013-06-03 19:22:00,81.5,74.0,29.89,WSW,237,2.0,27.0,78,0.00,,---,0.00,VWS V12.08,2013-06-03 23:22:00,
2013-06-03 19:27:00,81.5,74.0,29.90,SW,234,6.0,27.0,78,0.00,,---,0.00,VWS V12.08,2013-06-03 23:27:00,
2013-06-03 19:32:00,81.4,74.3,29.90,WSW,237,5.0,27.0,79,0.00,,---,0.00,VWS V12.08,2013-06-03 23:32:00,
2013-06-03 19:37:00,81.4,74.3,29.91,WSW,242,5.0,27.0,79,0.00,,---,0.00,VWS V12.08,2013-06-03 23:37:00,
2013-06-03 19:42:00,81.4,74.3,29.91,WSW,252,0.0,27.0,79,0.00,,---,0.00,VWS V12.08,2013-06-03 23:42:00,
2013-06-03 19:47:00,81.4,74.3,29.91,WSW,252,3.0,27.0,79,0.00,,---,0.00,VWS V12.08,2013-06-03 23:47:00,
2013-06-03 19:52:00,81.3,74.2,29.92,WSW,252,4.0,27.0,79,0.00,,---,0.00,VWS V12.08,2013-06-03 23:52:00,
2013-06-03 19:57:00,81.2,74.1,29.92,WSW,252,2.0,27.0,79,0.00,,---,0.00,VWS V12.08,2013-06-03 23:57:00,
2013-06-03 20:02:00,81.2,74.1,29.92,WSW,252,4.0,27.0,79,0.00,,---,0.00,VWS V12.08,2013-06-04 00:02:00,
2013-06-03 20:07:00,81.2,74.4,29.92,WSW,248,2.0,27.0,80,0.00,,---,0.00,VWS V12.08,2013-06-04 00:07:00,
2013-06-03 20:12:00,81.2,74.4,29.92,WSW,244,7.0,27.0,80,0.00,,---,0.00,VWS V12.08,2013-06-04 00:12:00,
2013-06-03 20:17:00,81.1,74.3,29.91,WSW,244,5.0,27.0,80,0.00,,---,0.00,VWS V12.08,2013-06-04 00:17:00,
2013-06-03 20:22:00,81.0,74.2,29.91,WSW,244,5.0,27.0,80,0.00,,---,0.00,VWS V12.08,2013-06-04 00:22:00,
2013-06-03 20:27:00,80.8,74.4,29.91,WSW,243,1.0,27.0,81,0.00,,---,0.00,VWS V12.08,2013-06-04 00:27:00,
2013-06-03 20:32:00,80.7,74.3,29.91,WSW,243,3.0,27.0,81,0.00,,---,0.00,VWS V12.08,2013-06-04 00:32:00,
2013-06-03 20:37:00,80.5,74.1,29.91,WSW,243,5.0,27.0,81,0.00,,---,0.00,VWS V12.08,2013-06-04 00:37:00,
2013-06-03 20:42:00,80.5,74.5,29.92,WSW,243,3.0,27.0,82,0.00,,---,0.00,VWS V12.08,2013-06-04 00:42:00,
2013-06-03 20:47:00,80.4,74.4,29.92,WSW,243,3.0,27.0,82,0.00,,---,0.00,VWS V12.08,2013-06-04 00:47:00,
2013-06-03 20:52:00,80.3,74.3,29.92,WSW,243,0.0,27.0,82,0.00,,---,0.00,VWS V12.08,2013-06-04 00:52:00,
2013-06-03 20:57:00,80.3,74.3,29.93,WSW,243,0.0,27.0,82,0.00,,---,0.00,VWS V12.08,2013-06-04 00:57:00,
2013-06-03 21:02:00,80.2,74.6,29.93,WSW,243,0.0,27.0,83,0.00,,---,0.00,VWS V12.08,2013-06-04 01:02:00,
2013-06-03 21:07:00,80.1,74.5,29.93,WSW,243,0.0,27.0,83,0.00,,---,0.00,VWS V12.08,2013-06-04 01:07:00,
2013-06-03 21:12:00,80.0,74.4,29.93,WSW,243,0.0,27.0,83,0.00,,---,0.00,VWS V12.08,2013-06-04 01:12:00,
2013-06-03 21:17:00,79.9,74.3,29.94,WSW,243,0.0,27.0,83,0.00,,---,0.00,VWS V12.08,2013-06-04 01:17:00,
2013-06-03 21:22:00,79.8,74.5,29.94,WSW,243,0.0,27.0,84,0.00,,---,0.00,VWS V12.08,2013-06-04 01:22:00,
2013-06-03 21:27:00,79.8,74.5,29.95,WSW,243,0.0,27.0,84,0.00,,---,0.00,VWS V12.08,2013-06-04 01:27:00,
2013-06-03 21:32:00,79.8,74.5,29.95,WSW,243,0.0,27.0,84,0.00,,---,0.00,VWS V12.08,2013-06-04 01:32:00,
2013-06-03 21:37:00,79.8,74.5,29.95,WSW,243,2.0,27.0,84,0.00,,---,0.00,VWS V12.08,2013-06-04 01:37:00,
2013-06-03 21:42:00,79.8,74.5,29.95,WSW,243,0.0,27.0,84,0.00,,---,0.00,VWS V12.08,2013-06-04 01:42:00,
2013-06-03 21:47:00,79.7,74.4,29.95,WSW,242,4.0,27.0,84,0.00,,---,0.00,VWS V12.08,2013-06-04 01:47:00,
2013-06-03 21:52:00,79.6,74.3,29.96,SW,234,4.0,27.0,84,0.00,,---,0.00,VWS V12.08,2013-06-04 01:52:00,
2013-06-03 21:57:00,79.5,74.2,29.96,SW,234,3.0,27.0,84,0.00,,---,0.00,VWS V12.08,2013-06-04 01:57:00,
2013-06-03 22:03:00,79.4,74.5,29.96,SW,234,4.0,27.0,85,0.00,,---,0.00,VWS V12.08,2013-06-04 02:03:00,
2013-06-03 22:08:00,79.3,74.4,29.96,SW,234,2.0,27.0,85,0.00,,---,0.00,VWS V12.08,2013-06-04 02:08:00,
2013-06-03 22:13:00,79.2,74.3,29.96,SW,234,3.0,27.0,85,0.00,,---,0.00,VWS V12.08,2013-06-04 02:13:00,
2013-06-03 22:18:00,79.2,74.7,29.97,SW,234,4.0,27.0,86,0.00,,---,0.00,VWS V12.08,2013-06-04 02:18:00,
2013-06-03 22:23:00,79.1,74.6,29.97,SW,234,2.0,27.0,86,0.00,,---,0.00,VWS V12.08,2013-06-04 02:23:00,
2013-06-03 22:28:00,79.1,74.6,29.97,SW,234,3.0,27.0,86,0.00,,---,0.00,VWS V12.08,2013-06-04 02:28:00,
2013-06-03 22:33:00,79.1,74.9,29.97,SW,234,2.0,27.0,87,0.00,,---,0.00,VWS V12.08,2013-06-04 02:33:00,
2013-06-03 22:38:00,79.0,74.8,29.97,SW,232,4.0,27.0,87,0.00,,---,0.00,VWS V12.08,2013-06-04 02:38:00,
2013-06-03 22:43:00,78.9,74.7,29.97,SW,222,6.0,27.0,87,0.00,,---,0.00,VWS V12.08,2013-06-04 02:43:00,
2013-06-03 22:48:00,78.7,74.5,29.97,SW,219,3.0,27.0,87,0.00,,---,0.00,VWS V12.08,2013-06-04 02:48:00,
2013-06-03 22:53:00,78.4,74.6,29.97,SSW,207,4.0,27.0,88,0.00,,---,0.00,VWS V12.08,2013-06-04 02:53:00,
2013-06-03 22:58:00,77.7,73.9,29.97,SSW,207,7.0,27.0,88,0.00,,---,0.00,VWS V12.08,2013-06-04 02:58:00,
2013-06-03 23:03:00,77.0,73.5,29.97,SSW,205,0.0,27.0,89,0.00,,---,0.00,VWS V12.08,2013-06-04 03:03:00,
2013-06-03 23:08:00,76.7,73.6,29.97,SSW,205,0.0,27.0,90,0.00,,---,0.00,VWS V12.08,2013-06-04 03:08:00,
2013-06-03 23:13:00,76.6,73.8,29.97,SSW,205,0.0,27.0,91,0.00,,---,0.00,VWS V12.08,2013-06-04 03:13:00,
2013-06-03 23:18:00,76.5,73.7,29.97,SSW,205,0.0,27.0,91,0.00,,---,0.00,VWS V12.08,2013-06-04 03:18:00,
2013-06-03 23:23:00,76.4,73.9,29.98,SSW,205,0.0,27.0,92,0.00,,---,0.00,VWS V12.08,2013-06-04 03:23:00,
2013-06-03 23:28:00,76.4,73.9,29.98,SSW,205,0.0,27.0,92,0.00,,---,0.00,VWS V12.08,2013-06-04 03:28:00,
2013-06-03 23:33:00,76.4,73.9,29.99,SSW,205,0.0,27.0,92,0.00,,---,0.00,VWS V12.08,2013-06-04 03:33:00,
2013-06-03 23:38:00,76.3,74.1,29.99,SSW,205,0.0,27.0,93,0.00,,---,0.00,VWS V12.08,2013-06-04 03:38:00,
2013-06-03 23:43:00,76.4,74.2,29.99,SSW,205,0.0,27.0,93,0.00,,---,0.00,VWS V12.08,2013-06-04 03:43:00,
2013-06-03 23:48:00,76.4,74.2,29.99,SSW,205,0.0,27.0,93,0.00,,---,0.00,VWS V12.08,2013-06-04 03:48:00,
2013-06-03 23:53:00,76.4,74.2,29.99,SSW,205,0.0,27.0,93,0.00,,---,0.00,VWS V12.08,2013-06-04 03:53:00,
2013-06-03 23:58:00,76.4,74.2,29.99,SSW,205,0.0,27.0,93,0.00,,---,0.00,VWS V12.08,2013-06-04 03:58:00,